NJE098F LEMD-GMMX

Flight info

Callsign NJE098F
Flight time 1h 46m
Altitude 35000
Route VTB N10 SVL N857 KORNO UN857 ABODA UR722 MABAP
Aircraft CL60/M-SADE3FGHIJ3J4J7P2RWXY/HB1D1

Departure

Time 2026-05-05 08:08
Airport Adolfo Suárez Madrid–Barajas Airport (LEMD)

Arrival

Time 2026-05-05 09:54
Airport Marrakesh Menara Airport (GMMX)
Time Latitude Longitude Altitude Speed Heading
2026-05-05 07:50 40.45573 -3.57363 1990 ft 0 kts 224°
2026-05-05 07:57 40.45538 -3.57408 1992 ft 9 kts 224°
2026-05-05 07:58 40.45491 -3.57381 1991 ft 12 kts 92°
2026-05-05 07:58 40.45554 -3.57284 1988 ft 16 kts 43°
2026-05-05 07:58 40.45647 -3.57162 1987 ft 20 kts 45°
2026-05-05 07:58 40.45758 -3.57017 1983 ft 24 kts 44°
2026-05-05 07:59 40.45887 -3.56849 1980 ft 27 kts 44°
2026-05-05 07:59 40.46057 -3.56758 1982 ft 27 kts 358°
2026-05-05 07:59 40.46193 -3.56757 1985 ft 12 kts 19°
2026-05-05 07:59 40.46217 -3.56640 1981 ft 17 kts 77°
2026-05-05 08:00 40.46276 -3.56608 1981 ft 9 kts
2026-05-05 08:00 40.46351 -3.56602 1982 ft 11 kts
2026-05-05 08:00 40.46438 -3.56594 1983 ft 13 kts
2026-05-05 08:00 40.46545 -3.56585 1982 ft 16 kts
2026-05-05 08:01 40.46673 -3.56575 1982 ft 19 kts
2026-05-05 08:01 40.46818 -3.56565 1981 ft 22 kts
2026-05-05 08:01 40.46986 -3.56555 1980 ft 25 kts 359°
2026-05-05 08:01 40.47154 -3.56638 1980 ft 26 kts 322°
2026-05-05 08:02 40.47285 -3.56774 1985 ft 15 kts 322°
2026-05-05 08:02 40.47370 -3.56861 1988 ft 15 kts 321°
2026-05-05 08:02 40.47461 -3.56955 1990 ft 17 kts 321°
2026-05-05 08:02 40.47559 -3.57053 1993 ft 18 kts 322°
2026-05-05 08:03 40.47658 -3.57154 1997 ft 18 kts 322°
2026-05-05 08:03 40.47762 -3.57260 1999 ft 19 kts 321°
2026-05-05 08:03 40.47870 -3.57369 2001 ft 20 kts 323°
2026-05-05 08:03 40.47988 -3.57485 2003 ft 21 kts 322°
2026-05-05 08:04 40.48106 -3.57608 2006 ft 22 kts 321°
2026-05-05 08:04 40.48233 -3.57739 2007 ft 23 kts 322°
2026-05-05 08:04 40.48373 -3.57876 2008 ft 25 kts 332°
2026-05-05 08:04 40.48527 -3.58002 2010 ft 26 kts 326°
2026-05-05 08:05 40.48705 -3.58056 2008 ft 28 kts
2026-05-05 08:05 40.48909 -3.58058 2008 ft 30 kts
2026-05-05 08:05 40.49122 -3.58060 2006 ft 20 kts 359°
2026-05-05 08:05 40.49237 -3.58037 2004 ft 14 kts 48°
2026-05-05 08:06 40.49245 -3.57884 2001 ft 14 kts 88°
2026-05-05 08:06 40.49245 -3.57877 2001 ft 0 kts 88°
2026-05-05 08:06 40.49245 -3.57862 2001 ft 10 kts 91°
2026-05-05 08:07 40.49247 -3.57701 1995 ft 21 kts 89°
2026-05-05 08:07 40.49308 -3.57506 1988 ft 26 kts 39°
2026-05-05 08:07 40.49479 -3.57463 1986 ft 6 kts 358°
2026-05-05 08:07 40.49480 -3.57463 1986 ft 0 kts 358°
2026-05-05 08:08 40.49810 -3.57470 1986 ft 100 kts 358°
2026-05-05 08:08 40.50796 -3.57465 2040 ft 177 kts
2026-05-05 08:08 40.52121 -3.57444 2829 ft 197 kts 359°
2026-05-05 08:08 40.53489 -3.57430 3889 ft 209 kts 359°
2026-05-05 08:09 40.54978 -3.57384 4894 ft 227 kts
2026-05-05 08:09 40.56631 -3.57307 5780 ft 242 kts
2026-05-05 08:09 40.58286 -3.56915 6593 ft 246 kts 14°
2026-05-05 08:09 40.59901 -3.56200 7466 ft 247 kts 18°
2026-05-05 08:10 40.61474 -3.55322 8263 ft 252 kts 21°
2026-05-05 08:10 40.63096 -3.54393 9081 ft 254 kts 18°
2026-05-05 08:10 40.64786 -3.53814 9902 ft 255 kts
2026-05-05 08:10 40.66526 -3.53530 10828 ft 255 kts
2026-05-05 08:11 40.68283 -3.53231 11873 ft 259 kts
2026-05-05 08:11 40.70035 -3.52664 12897 ft 271 kts 20°
2026-05-05 08:11 40.71637 -3.51246 13900 ft 291 kts 45°
2026-05-05 08:11 40.72600 -3.48902 15087 ft 300 kts 70°
2026-05-05 08:12 40.73132 -3.46315 16548 ft 293 kts 81°
2026-05-05 08:12 40.73164 -3.43702 17563 ft 297 kts 104°
2026-05-05 08:12 40.72440 -3.41087 18239 ft 308 kts 125°
2026-05-05 08:12 40.71060 -3.39028 19280 ft 295 kts 153°
2026-05-05 08:13 40.69287 -3.37885 20356 ft 282 kts 169°
2026-05-05 08:13 40.67460 -3.37188 21505 ft 271 kts 179°
2026-05-05 08:13 40.65660 -3.36887 22594 ft 259 kts 188°
2026-05-05 08:13 40.63921 -3.36789 23617 ft 254 kts 190°
2026-05-05 08:14 40.62179 -3.36696 24601 ft 251 kts 190°
2026-05-05 08:14 40.60460 -3.36603 25547 ft 248 kts 191°
2026-05-05 08:14 40.58767 -3.36511 26442 ft 244 kts 191°
2026-05-05 08:14 40.57106 -3.36421 27291 ft 240 kts 192°
2026-05-05 08:15 40.55461 -3.36333 28079 ft 236 kts 192°
2026-05-05 08:15 40.53830 -3.36246 28810 ft 234 kts 193°
2026-05-05 08:15 40.52221 -3.36162 29499 ft 231 kts 193°
2026-05-05 08:15 40.50634 -3.36077 30173 ft 229 kts 194°
2026-05-05 08:16 40.49038 -3.35996 30746 ft 227 kts 193°
2026-05-05 08:16 40.47488 -3.35913 31322 ft 224 kts 194°
2026-05-05 08:16 40.45953 -3.35829 31910 ft 218 kts 193°
2026-05-05 08:16 40.44462 -3.35746 32478 ft 212 kts 194°
2026-05-05 08:17 40.42983 -3.35672 32888 ft 212 kts 194°
2026-05-05 08:17 40.41507 -3.35602 33259 ft 214 kts 194°
2026-05-05 08:17 40.40000 -3.35532 33551 ft 220 kts 194°
2026-05-05 08:17 40.38409 -3.35473 33595 ft 238 kts 193°
2026-05-05 08:18 40.36686 -3.35406 33618 ft 256 kts 192°
2026-05-05 08:18 40.34841 -3.35328 33635 ft 275 kts 191°
2026-05-05 08:18 40.32849 -3.35239 33650 ft 294 kts 191°
2026-05-05 08:18 40.30761 -3.35141 33671 ft 312 kts 189°
2026-05-05 08:19 40.28516 -3.35032 33687 ft 329 kts 188°
2026-05-05 08:19 40.26195 -3.34930 33704 ft 343 kts 191°
2026-05-05 08:19 40.21405 -3.35761 33750 ft 358 kts 200°
2026-05-05 08:20 40.18920 -3.36385 33905 ft 367 kts 200°
2026-05-05 08:20 40.16399 -3.37008 34161 ft 372 kts 200°
2026-05-05 08:20 40.13863 -3.37634 34512 ft 374 kts 200°
2026-05-05 08:20 40.11315 -3.38259 34864 ft 375 kts 200°
2026-05-05 08:21 40.08738 -3.38896 34981 ft 383 kts 199°
2026-05-05 08:21 40.06093 -3.39552 34995 ft 393 kts 199°
2026-05-05 08:21 40.00601 -3.40908 34992 ft 411 kts 199°
2026-05-05 08:22 39.94904 -3.42304 34987 ft 420 kts 199°
2026-05-05 08:22 39.89143 -3.43709 34983 ft 420 kts 199°
2026-05-05 08:23 39.83441 -3.45097 34989 ft 419 kts 199°
2026-05-05 08:23 39.77699 -3.46495 34989 ft 418 kts 199°
2026-05-05 08:24 39.72306 -3.48758 34992 ft 401 kts 215°
2026-05-05 08:24 39.68084 -3.53195 34987 ft 387 kts 234°
2026-05-05 08:25 39.64963 -3.58859 34984 ft 386 kts 238°
2026-05-05 08:25 39.61787 -3.64496 34985 ft 387 kts 236°
2026-05-05 08:26 39.58496 -3.70016 34995 ft 388 kts 235°
2026-05-05 08:26 39.55088 -3.75420 34997 ft 388 kts 234°
2026-05-05 08:27 39.51548 -3.80722 34989 ft 388 kts 232°
2026-05-05 08:27 39.47899 -3.85886 34993 ft 389 kts 231°
2026-05-05 08:28 39.44106 -3.90897 34992 ft 389 kts 230°
2026-05-05 08:28 39.40324 -3.95835 34981 ft 389 kts 230°
2026-05-05 08:29 39.36518 -4.00793 34995 ft 390 kts 230°
2026-05-05 08:30 39.30764 -4.08264 34999 ft 390 kts 230°
2026-05-05 08:30 39.26931 -4.13228 34998 ft 389 kts 230°
2026-05-05 08:31 39.23110 -4.18167 35001 ft 390 kts 230°
2026-05-05 08:31 39.19295 -4.23089 35001 ft 390 kts 230°
2026-05-05 08:32 39.15463 -4.28023 34998 ft 390 kts 230°
2026-05-05 08:32 39.11623 -4.32959 35003 ft 390 kts 230°
2026-05-05 08:33 39.07792 -4.37874 35006 ft 390 kts 230°
2026-05-05 08:33 39.03975 -4.42763 35009 ft 389 kts 230°
2026-05-05 08:34 39.00131 -4.47680 35007 ft 390 kts 230°
2026-05-05 08:34 38.96286 -4.52588 35016 ft 390 kts 230°
2026-05-05 08:35 38.92442 -4.57486 35017 ft 391 kts 230°
2026-05-05 08:35 38.88570 -4.62411 35016 ft 392 kts 230°
2026-05-05 08:36 38.84713 -4.67308 35013 ft 392 kts 229°
2026-05-05 08:36 38.80842 -4.72215 35022 ft 392 kts 230°
2026-05-05 08:37 38.76967 -4.77119 35024 ft 393 kts 229°
2026-05-05 08:37 38.73067 -4.82046 35023 ft 393 kts 230°
2026-05-05 08:38 38.69185 -4.86943 35025 ft 393 kts 230°
2026-05-05 08:38 38.65299 -4.91836 35031 ft 394 kts 230°
2026-05-05 08:39 38.61385 -4.96758 35030 ft 394 kts 230°
2026-05-05 08:39 38.57493 -5.01643 35029 ft 395 kts 230°
2026-05-05 08:40 38.53580 -5.06547 35026 ft 395 kts 230°
2026-05-05 08:40 38.49231 -5.10907 35030 ft 406 kts 216°
2026-05-05 08:41 38.44148 -5.14133 35030 ft 410 kts 213°
2026-05-05 08:41 38.39001 -5.17330 35030 ft 410 kts 213°
2026-05-05 08:42 38.33907 -5.20489 35029 ft 409 kts 213°
2026-05-05 08:42 38.28787 -5.23660 35029 ft 410 kts 213°
2026-05-05 08:43 38.23664 -5.26829 35035 ft 411 kts 213°
2026-05-05 08:43 38.18505 -5.30014 35035 ft 411 kts 213°
2026-05-05 08:44 38.13372 -5.33179 35026 ft 412 kts 213°
2026-05-05 08:44 38.08248 -5.36332 35024 ft 412 kts 213°
2026-05-05 08:45 38.03073 -5.39512 35019 ft 411 kts 213°
2026-05-05 08:45 37.97946 -5.42657 35024 ft 410 kts 213°
2026-05-05 08:46 37.92828 -5.45793 35021 ft 410 kts 213°
2026-05-05 08:46 37.87678 -5.48944 35026 ft 411 kts 213°
2026-05-05 08:47 37.82523 -5.52093 35026 ft 412 kts 213°
2026-05-05 08:47 37.77351 -5.55246 35031 ft 413 kts 213°
2026-05-05 08:48 37.72195 -5.58386 35031 ft 413 kts 213°
2026-05-05 08:48 37.67003 -5.61541 35035 ft 413 kts 213°
2026-05-05 08:49 37.61807 -5.64695 35040 ft 414 kts 212°
2026-05-05 08:49 37.56643 -5.67824 35044 ft 415 kts 212°
2026-05-05 08:50 37.51438 -5.70973 35048 ft 415 kts 212°
2026-05-05 08:50 37.46200 -5.74138 35045 ft 416 kts 211°
2026-05-05 08:51 37.41277 -5.77810 35052 ft 406 kts 224°
2026-05-05 08:51 37.36993 -5.82368 35051 ft 407 kts 225°
2026-05-05 08:52 37.32681 -5.86959 35053 ft 407 kts 225°
2026-05-05 08:52 37.28339 -5.91574 35053 ft 408 kts 225°
2026-05-05 08:53 37.24029 -5.96146 35056 ft 409 kts 225°
2026-05-05 08:53 37.19696 -6.00736 35055 ft 410 kts 225°
2026-05-05 08:54 37.15312 -6.05372 35054 ft 409 kts 224°
2026-05-05 08:54 37.10972 -6.09956 35057 ft 410 kts 224°
2026-05-05 08:55 37.06626 -6.14537 35057 ft 411 kts 224°
2026-05-05 08:55 37.02263 -6.19130 35058 ft 412 kts 225°
2026-05-05 08:56 36.97862 -6.23756 35058 ft 413 kts 224°
2026-05-05 08:56 36.93483 -6.28350 35059 ft 413 kts 224°
2026-05-05 08:57 36.89074 -6.32969 35063 ft 414 kts 224°
2026-05-05 08:57 36.84659 -6.37587 35064 ft 414 kts 224°
2026-05-05 08:58 36.80270 -6.42172 35065 ft 414 kts 224°
2026-05-05 08:58 36.75851 -6.46780 35066 ft 415 kts 224°
2026-05-05 08:59 36.71406 -6.51408 35065 ft 415 kts 224°
2026-05-05 08:59 36.66970 -6.56019 35064 ft 416 kts 224°
2026-05-05 09:00 36.62534 -6.60624 35065 ft 416 kts 224°
2026-05-05 09:00 36.58102 -6.65218 35060 ft 417 kts 224°
2026-05-05 09:01 36.53647 -6.69828 35058 ft 418 kts 224°
2026-05-05 09:01 36.49173 -6.74449 35058 ft 418 kts 224°
2026-05-05 09:02 36.44698 -6.79064 35059 ft 418 kts 224°
2026-05-05 09:02 36.40224 -6.83671 35062 ft 419 kts 224°
2026-05-05 09:03 36.35743 -6.88278 35064 ft 420 kts 224°
2026-05-05 09:03 36.31264 -6.92876 35067 ft 420 kts 224°
2026-05-05 09:04 36.26766 -6.97486 35069 ft 419 kts 224°
2026-05-05 09:04 36.22277 -7.02079 35071 ft 419 kts 224°
2026-05-05 09:05 36.17782 -7.06673 35071 ft 420 kts 224°
2026-05-05 09:05 36.13280 -7.11266 35073 ft 420 kts 224°
2026-05-05 09:06 36.08773 -7.15856 35074 ft 420 kts 224°
2026-05-05 09:06 36.04286 -7.20420 35075 ft 421 kts 224°
2026-05-05 09:07 35.99760 -7.25017 35077 ft 421 kts 224°
2026-05-05 09:07 35.95245 -7.29595 35076 ft 422 kts 224°
2026-05-05 09:08 35.90697 -7.34200 35079 ft 423 kts 224°
2026-05-05 09:08 35.86169 -7.38778 35080 ft 423 kts 224°
2026-05-05 09:09 35.81605 -7.43371 35078 ft 423 kts 223°
2026-05-05 09:09 35.77036 -7.47935 35082 ft 424 kts 224°
2026-05-05 09:10 35.72451 -7.52507 35083 ft 425 kts 223°
2026-05-05 09:10 35.67872 -7.57067 35083 ft 425 kts 223°
2026-05-05 09:11 35.63285 -7.61627 35085 ft 425 kts 224°
2026-05-05 09:11 35.58676 -7.66203 35085 ft 426 kts 223°
2026-05-05 09:12 35.54083 -7.70757 35086 ft 426 kts 223°
2026-05-05 09:12 35.49447 -7.75345 35088 ft 426 kts 223°
2026-05-05 09:13 35.44485 -7.79313 35090 ft 434 kts 211°
2026-05-05 09:13 35.38728 -7.81837 35088 ft 444 kts 198°
2026-05-05 09:14 35.32529 -7.82563 35090 ft 456 kts 183°
2026-05-05 09:14 35.26149 -7.82047 35090 ft 458 kts 181°
2026-05-05 09:15 35.19787 -7.81507 35088 ft 457 kts 181°
2026-05-05 09:15 35.13459 -7.80971 35087 ft 457 kts 181°
2026-05-05 09:16 35.07129 -7.80437 35089 ft 456 kts 181°
2026-05-05 09:16 35.00784 -7.79903 35088 ft 456 kts 181°
2026-05-05 09:17 34.94493 -7.79375 35082 ft 456 kts 181°
2026-05-05 09:17 34.88164 -7.78845 35088 ft 456 kts 181°
2026-05-05 09:18 34.81837 -7.78317 35084 ft 456 kts 181°
2026-05-05 09:18 34.75502 -7.77788 35083 ft 456 kts 181°
2026-05-05 09:19 34.69184 -7.77323 35082 ft 455 kts 181°
2026-05-05 09:19 34.62847 -7.76881 35079 ft 454 kts 181°
2026-05-05 09:20 34.56560 -7.76443 35082 ft 454 kts 181°
2026-05-05 09:20 34.50236 -7.76003 35081 ft 454 kts 181°
2026-05-05 09:21 34.43954 -7.75567 35080 ft 454 kts 182°
2026-05-05 09:21 34.37654 -7.75130 35076 ft 454 kts 181°
2026-05-05 09:22 34.31356 -7.74693 35076 ft 453 kts 181°
2026-05-05 09:22 34.25062 -7.74258 35075 ft 452 kts 181°
2026-05-05 09:23 34.18813 -7.73824 35074 ft 452 kts 181°
2026-05-05 09:23 34.12517 -7.73257 35071 ft 452 kts 180°
2026-05-05 09:24 34.06251 -7.72675 35073 ft 452 kts 180°
2026-05-05 09:24 33.99990 -7.72095 35068 ft 452 kts 180°
2026-05-05 09:25 33.93697 -7.71513 35073 ft 453 kts 180°
2026-05-05 09:25 33.87457 -7.70938 35063 ft 452 kts 181°
2026-05-05 09:26 33.81163 -7.70359 35069 ft 452 kts 181°
2026-05-05 09:26 33.74886 -7.69782 35073 ft 451 kts 181°
2026-05-05 09:27 33.68634 -7.69209 35063 ft 451 kts 181°
2026-05-05 09:27 33.62391 -7.68637 35065 ft 451 kts 181°
2026-05-05 09:28 33.56097 -7.68341 35065 ft 444 kts 189°
2026-05-05 09:28 33.53063 -7.68786 35235 ft 438 kts 196°
2026-05-05 09:28 33.50106 -7.69679 35079 ft 433 kts 204°
2026-05-05 09:29 33.44717 -7.72627 35064 ft 423 kts 214°
2026-05-05 09:29 33.39554 -7.76056 35063 ft 423 kts 214°
2026-05-05 09:30 33.34391 -7.79474 35066 ft 423 kts 214°
2026-05-05 09:30 33.29263 -7.82865 35058 ft 421 kts 214°
2026-05-05 09:31 33.24150 -7.86242 35050 ft 420 kts 214°
2026-05-05 09:31 33.19016 -7.89629 35054 ft 420 kts 214°
2026-05-05 09:32 33.13880 -7.93013 35041 ft 420 kts 215°
2026-05-05 09:32 33.08765 -7.96379 35044 ft 419 kts 215°
2026-05-05 09:33 33.03639 -7.99748 35048 ft 419 kts 215°
2026-05-05 09:33 32.98544 -8.03093 35040 ft 418 kts 215°
2026-05-05 09:33 32.96010 -8.04709 34749 ft 412 kts 213°
2026-05-05 09:34 32.93348 -8.06017 34262 ft 410 kts 206°
2026-05-05 09:34 32.90620 -8.06891 33772 ft 409 kts 199°
2026-05-05 09:34 32.87792 -8.07423 33228 ft 408 kts 195°
2026-05-05 09:34 32.85000 -8.07875 32702 ft 403 kts 195°
2026-05-05 09:35 32.82246 -8.08325 32167 ft 398 kts 195°
2026-05-05 09:35 32.76801 -8.09215 31119 ft 389 kts 195°
2026-05-05 09:35 32.74136 -8.09651 30607 ft 384 kts 195°
2026-05-05 09:36 32.71520 -8.10079 30100 ft 380 kts 195°
2026-05-05 09:36 32.68906 -8.10506 29609 ft 375 kts 195°
2026-05-05 09:36 32.66331 -8.10926 29126 ft 370 kts 195°
2026-05-05 09:36 32.63820 -8.11336 28651 ft 366 kts 195°
2026-05-05 09:37 32.61289 -8.11750 28166 ft 362 kts 195°
2026-05-05 09:37 32.58807 -8.12155 27684 ft 359 kts 195°
2026-05-05 09:37 32.56324 -8.12561 27207 ft 355 kts 195°
2026-05-05 09:37 32.53903 -8.12956 26739 ft 352 kts 195°
2026-05-05 09:38 32.51489 -8.13350 26276 ft 348 kts 195°
2026-05-05 09:38 32.49081 -8.13743 25813 ft 345 kts 195°
2026-05-05 09:38 32.46711 -8.14129 25352 ft 342 kts 195°
2026-05-05 09:38 32.44357 -8.14514 24903 ft 342 kts 195°
2026-05-05 09:39 32.41970 -8.14904 24449 ft 341 kts 195°
2026-05-05 09:39 32.39628 -8.15286 23996 ft 340 kts 195°
2026-05-05 09:39 32.37281 -8.15668 23535 ft 339 kts 195°
2026-05-05 09:39 32.34971 -8.16044 23098 ft 336 kts 195°
2026-05-05 09:40 32.32666 -8.16419 22650 ft 334 kts 195°
2026-05-05 09:40 32.30353 -8.16795 22205 ft 332 kts 195°
2026-05-05 09:40 32.28087 -8.17163 21768 ft 330 kts 195°
2026-05-05 09:40 32.25808 -8.17533 21335 ft 328 kts 195°
2026-05-05 09:41 32.23571 -8.17896 20896 ft 326 kts 195°
2026-05-05 09:41 32.21314 -8.18262 20468 ft 324 kts 195°
2026-05-05 09:41 32.19107 -8.18620 20038 ft 323 kts 195°
2026-05-05 09:41 32.16878 -8.18981 19609 ft 321 kts 195°
2026-05-05 09:42 32.14671 -8.19339 19187 ft 319 kts 194°
2026-05-05 09:42 32.12513 -8.19812 18769 ft 311 kts 205°
2026-05-05 09:42 32.10598 -8.20941 18352 ft 303 kts 216°
2026-05-05 09:42 32.08787 -8.22194 17957 ft 303 kts 215°
2026-05-05 09:43 32.06955 -8.23450 17564 ft 301 kts 215°
2026-05-05 09:43 32.05152 -8.24684 17157 ft 301 kts 215°
2026-05-05 09:43 32.03349 -8.25917 16759 ft 299 kts 216°
2026-05-05 09:43 32.01561 -8.27139 16367 ft 297 kts 216°
2026-05-05 09:44 31.99769 -8.28364 15976 ft 297 kts 216°
2026-05-05 09:44 31.97967 -8.29595 15578 ft 297 kts 216°
2026-05-05 09:44 31.96203 -8.30799 15183 ft 294 kts 216°
2026-05-05 09:44 31.94428 -8.32010 14783 ft 294 kts 216°
2026-05-05 09:45 31.92665 -8.33212 14397 ft 293 kts 217°
2026-05-05 09:45 31.90904 -8.34413 14029 ft 291 kts 216°
2026-05-05 09:45 31.89161 -8.35600 13653 ft 291 kts 217°
2026-05-05 09:45 31.87392 -8.36804 13220 ft 289 kts 217°
2026-05-05 09:46 31.85666 -8.37979 12866 ft 287 kts 216°
2026-05-05 09:46 31.83921 -8.39153 12474 ft 287 kts 214°
2026-05-05 09:46 31.82103 -8.40165 12095 ft 290 kts 209°
2026-05-05 09:46 31.80269 -8.41107 11736 ft 289 kts 209°
2026-05-05 09:47 31.78399 -8.42071 11319 ft 289 kts 208°
2026-05-05 09:47 31.76567 -8.43014 10943 ft 286 kts 208°
2026-05-05 09:47 31.74760 -8.43944 10546 ft 287 kts 208°
2026-05-05 09:47 31.72928 -8.44887 10180 ft 285 kts 207°
2026-05-05 09:48 31.71053 -8.45631 9787 ft 293 kts 193°
2026-05-05 09:48 31.68980 -8.45655 9108 ft 303 kts 173°
2026-05-05 09:48 31.66974 -8.44858 8578 ft 306 kts 153°
2026-05-05 09:48 31.65280 -8.43302 7888 ft 313 kts 133°
2026-05-05 09:49 31.64311 -8.41054 7387 ft 308 kts 103°
2026-05-05 09:49 31.63926 -8.38625 6860 ft 306 kts 102°
2026-05-05 09:49 31.63587 -8.36184 6501 ft 297 kts 97°
2026-05-05 09:49 31.63339 -8.33789 6092 ft 291 kts 97°
2026-05-05 09:50 31.63119 -8.31475 5722 ft 284 kts 96°
2026-05-05 09:50 31.62916 -8.29196 5364 ft 278 kts 95°
2026-05-05 09:50 31.62719 -8.26963 5006 ft 272 kts 95°
2026-05-05 09:50 31.62531 -8.24780 4660 ft 266 kts 95°
2026-05-05 09:51 31.62348 -8.22665 4328 ft 260 kts 95°
2026-05-05 09:51 31.62166 -8.20566 4003 ft 255 kts 94°
2026-05-05 09:51 31.61989 -8.18526 3674 ft 247 kts 95°
2026-05-05 09:51 31.61822 -8.16614 3392 ft 228 kts 94°
2026-05-05 09:52 31.61665 -8.14814 3080 ft 209 kts 94°
2026-05-05 09:52 31.61526 -8.13223 2767 ft 186 kts 94°
2026-05-05 09:52 31.61407 -8.11810 2488 ft 169 kts 94°
2026-05-05 09:52 31.61285 -8.10543 2337 ft 146 kts 94°
2026-05-05 09:53 31.61186 -8.09405 2098 ft 136 kts 93°
2026-05-05 09:53 31.61101 -8.08237 2079 ft 149 kts 93°
2026-05-05 09:53 31.61004 -8.07062 1887 ft 138 kts 94°
2026-05-05 09:53 31.60908 -8.05976 1660 ft 132 kts 95°
2026-05-05 09:54 31.60806 -8.04921 1530 ft 124 kts 95°
2026-05-05 09:54 31.60727 -8.04014 1532 ft 98 kts 97°
2026-05-05 09:54 31.60671 -8.03401 1539 ft 57 kts 97°
2026-05-05 09:54 31.60570 -8.03140 1544 ft 20 kts 129°
2026-05-05 09:55 31.60482 -8.02999 1547 ft 22 kts 126°
2026-05-05 09:55 31.60447 -8.02823 1550 ft 23 kts 95°
2026-05-05 09:55 31.60431 -8.02628 1554 ft 24 kts 95°
2026-05-05 09:55 31.60414 -8.02420 1556 ft 26 kts 95°
2026-05-05 09:56 31.60397 -8.02242 1559 ft 18 kts 97°
2026-05-05 09:56 31.60381 -8.02101 1560 ft 10 kts 120°
2026-05-05 09:56 31.60326 -8.02111 1562 ft 9 kts 230°
2026-05-05 09:56 31.60302 -8.02120 1563 ft 0 kts 185°
2026-05-05 09:57 31.60296 -8.02120 1563 ft 0 kts 187°